When you browse on this site, cookies collect data to enhance your experience and personalize the content and advertising you see.
Visit our Privacy Policy to learn more. By continuing to use the site, you agree to this use of cookies and data.
  • In Romania
  • List of Countries
  • For 7 days
  • Water Temperature
  • Weather Map
  • Weather Widgets
  • user-avatar
    Login

    Hourly Weather Cape Coast

    Today, 22 January, Wednesday

    Time Temperature Precipitation Wind Pressure Humidity
    00:00 +28°C° 0 mm 1 mps 758 mmHg 81%
    01:00 +28°C° 0 mm 1 mps 757 mmHg 83%
    02:00 +27°C° 0 mm 1 mps 757 mmHg 84%
    03:00 +25°C° 0 mm 0 mps 757 mmHg 85%
    04:00 +27°C° 0 mm 1 mps 757 mmHg 86%
    05:00 +27°C° 0 mm 1 mps 757 mmHg 87%
    06:00 +27°C° 0 mm 1 mps 758 mmHg 87%
    07:00 +29°C° 0 mm 1 mps 758 mmHg 78%
    08:00 +30°C° 0 mm 1 mps 758 mmHg 68%
    09:00 +32°C° 0 mm 1 mps 759 mmHg 59%
    10:00 +35°C° 0 mm 2 mps 758 mmHg 53%
    11:00 +36°C° 0 mm 2 mps 758 mmHg 47%
    12:00 +38°C° 0 mm 2 mps 757 mmHg 41%
    13:00 +37°C° 0 mm 3 mps 757 mmHg 44%
    14:00 +37°C° 0 mm 4 mps 756 mmHg 46%
    15:00 +36°C° 0 mm 4 mps 755 mmHg 48%
    16:00 +34°C° 0 mm 4 mps 755 mmHg 56%
    17:00 +33°C° 0 mm 4 mps 755 mmHg 63%
    18:00 +30°C° 0 mm 4 mps 756 mmHg 71%
    19:00 +30°C° 0 mm 4 mps 756 mmHg 74%
    20:00 +29°C° 0 mm 4 mps 757 mmHg 77%
    21:00 +29°C° 0 mm 3 mps 757 mmHg 81%
    22:00 +29°C° 0 mm 3 mps 757 mmHg 83%
    23:00 +28°C° 0 mm 3 mps 757 mmHg 85%

    Tomorrow, 23 January, Thursday

    Time Temperature Precipitation Wind Pressure Humidity
    00:00 +28°C° 0 mm 3 mps 757 mmHg 87%
    01:00 +28°C° 0 mm 3 mps 757 mmHg 88%
    02:00 +28°C° 0 mm 3 mps 757 mmHg 89%
    03:00 +27°C° 0 mm 3 mps 756 mmHg 90%
    04:00 +27°C° 0 mm 3 mps 757 mmHg 92%
    05:00 +27°C° 0 mm 3 mps 757 mmHg 93%
    06:00 +27°C° 0 mm 3 mps 757 mmHg 94%
    07:00 +28°C° 0 mm 3 mps 758 mmHg 85%
    08:00 +30°C° 0 mm 2 mps 758 mmHg 76%
    09:00 +32°C° 0 mm 2 mps 759 mmHg 67%
    10:00 +34°C° 0 mm 2 mps 758 mmHg 60%
    11:00 +36°C° 0 mm 3 mps 758 mmHg 52%
    12:00 +38°C° 0 mm 3 mps 758 mmHg 45%
    13:00 +37°C° 0 mm 4 mps 757 mmHg 46%
    14:00 +37°C° 0 mm 4 mps 756 mmHg 48%
    15:00 +37°C° 0 mm 5 mps 756 mmHg 49%
    16:00 +35°C° 0 mm 5 mps 756 mmHg 58%
    17:00 +33°C° 0 mm 5 mps 755 mmHg 66%
    18:00 +30°C° 0 mm 5 mps 755 mmHg 74%
    19:00 +30°C° 0 mm 5 mps 756 mmHg 77%
    20:00 +29°C° 0 mm 5 mps 757 mmHg 80%
    21:00 +29°C° 0 mm 4 mps 757 mmHg 82%
    22:00 +29°C° 0 mm 4 mps 757 mmHg 84%
    23:00 +29°C° 0 mm 3 mps 757 mmHg 86%

    Day after tomorrow, 24 January, Friday

    Time Temperature Precipitation Wind Pressure Humidity
    00:00 +28°C° 0 mm 2 mps 757 mmHg 88%
    01:00 +28°C° 0 mm 3 mps 757 mmHg 89%
    02:00 +28°C° 0 mm 3 mps 757 mmHg 90%
    03:00 +28°C° 0 mm 3 mps 756 mmHg 91%
    04:00 +27°C° 0 mm 3 mps 756 mmHg 92%
    05:00 +27°C° 0 mm 3 mps 757 mmHg 93%
    06:00 +27°C° 0 mm 3 mps 757 mmHg 94%
    07:00 +28°C° 0 mm 3 mps 757 mmHg 85%
    08:00 +30°C° 0 mm 3 mps 758 mmHg 76%
    09:00 +33°C° 0 mm 3 mps 758 mmHg 67%
    10:00 +34°C° 0 mm 3 mps 758 mmHg 60%
    11:00 +36°C° 0 mm 3 mps 758 mmHg 54%
    12:00 +38°C° 0 mm 3 mps 758 mmHg 48%
    13:00 +37°C° 0 mm 3 mps 757 mmHg 51%
    14:00 +36°C° 0 mm 4 mps 756 mmHg 54%
    15:00 +35°C° 0 mm 5 mps 756 mmHg 57%
    16:00 +34°C° 0 mm 5 mps 756 mmHg 63%
    17:00 +32°C° 0 mm 5 mps 756 mmHg 69%
    18:00 +30°C° 0 mm 5 mps 756 mmHg 75%
    19:00 +30°C° 0 mm 4 mps 757 mmHg 77%
    20:00 +29°C° 0 mm 4 mps 757 mmHg 79%
    21:00 +29°C° 0 mm 3 mps 758 mmHg 81%
    22:00 +29°C° 0 mm 3 mps 758 mmHg 82%
    23:00 +28°C° 0 mm 3 mps 758 mmHg 83%

    25 January, Saturday

    Time Temperature Precipitation Wind Pressure Humidity
    00:00 +28°C° 0 mm 3 mps 758 mmHg 85%
    01:00 +28°C° 0 mm 3 mps 757 mmHg 86%
    02:00 +28°C° 0 mm 3 mps 757 mmHg 87%
    03:00 +27°C° 0 mm 3 mps 757 mmHg 87%
    04:00 +27°C° 0 mm 3 mps 757 mmHg 88%
    05:00 +27°C° 0 mm 3 mps 757 mmHg 89%
    06:00 +27°C° 0 mm 3 mps 757 mmHg 90%
    07:00 +28°C° 0 mm 3 mps 758 mmHg 82%
    08:00 +30°C° 0 mm 2 mps 758 mmHg 74%
    09:00 +31°C° 0 mm 2 mps 759 mmHg 67%
    10:00 +32°C° 0 mm 2 mps 758 mmHg 63%
    11:00 +34°C° 0 mm 2 mps 758 mmHg 59%
    12:00 +35°C° 0 mm 2 mps 758 mmHg 55%
    13:00 +35°C° 0 mm 3 mps 757 mmHg 55%
    14:00 +35°C° 0 mm 4 mps 757 mmHg 54%
    15:00 +35°C° 0 mm 4 mps 756 mmHg 54%
    16:00 +34°C° 0 mm 4 mps 756 mmHg 59%
    17:00 +32°C° 0 mm 4 mps 756 mmHg 64%
    18:00 +30°C° 0 mm 4 mps 756 mmHg 70%
    19:00 +29°C° 0 mm 4 mps 757 mmHg 73%
    20:00 +29°C° 0 mm 3 mps 758 mmHg 76%
    21:00 +29°C° 0 mm 3 mps 758 mmHg 79%
    22:00 +28°C° 0 mm 3 mps 758 mmHg 80%
    23:00 +28°C° 0 mm 3 mps 758 mmHg 81%

    26 January, Sunday

    Time Temperature Precipitation Wind Pressure Humidity
    00:00 +28°C° 0 mm 3 mps 758 mmHg 82%
    01:00 +27°C° 0 mm 3 mps 758 mmHg 83%
    02:00 +27°C° 0 mm 2 mps 758 mmHg 85%
    03:00 +27°C° 0 mm 2 mps 758 mmHg 86%
    04:00 +27°C° 0 mm 2 mps 758 mmHg 87%
    05:00 +26°C° 0 mm 2 mps 758 mmHg 88%
    06:00 +26°C° 0 mm 2 mps 758 mmHg 89%
    07:00 +28°C° 0 mm 2 mps 758 mmHg 80%
    08:00 +29°C° 0 mm 2 mps 759 mmHg 72%
    09:00 +31°C° 0 mm 2 mps 759 mmHg 63%
    10:00 +32°C° 0 mm 2 mps 759 mmHg 58%
    11:00 +34°C° 0 mm 3 mps 759 mmHg 54%
    12:00 +36°C° 0 mm 3 mps 758 mmHg 49%
    13:00 +35°C° 0 mm 3 mps 758 mmHg 51%
    14:00 +35°C° 0 mm 4 mps 757 mmHg 52%
    15:00 +35°C° 0 mm 4 mps 757 mmHg 53%
    16:00 +33°C° 0 mm 4 mps 757 mmHg 59%
    17:00 +32°C° 0 mm 4 mps 757 mmHg 64%
    18:00 +30°C° 0 mm 4 mps 757 mmHg 70%
    19:00 +29°C° 0 mm 4 mps 757 mmHg 72%
    20:00 +29°C° 0 mm 4 mps 758 mmHg 74%
    21:00 +29°C° 0 mm 4 mps 759 mmHg 77%
    22:00 +28°C° 0 mm 3 mps 759 mmHg 78%
    23:00 +28°C° 0 mm 3 mps 759 mmHg 79%

    27 January, Monday

    Time Temperature Precipitation Wind Pressure Humidity
    00:00 +28°C° 0 mm 3 mps 759 mmHg 80%
    01:00 +27°C° 0 mm 3 mps 759 mmHg 82%
    02:00 +27°C° 0 mm 3 mps 758 mmHg 84%
    03:00 +27°C° 0 mm 2 mps 758 mmHg 85%
    04:00 +26°C° 0 mm 2 mps 758 mmHg 86%
    05:00 +26°C° 0 mm 2 mps 758 mmHg 87%
    06:00 +26°C° 0 mm 2 mps 758 mmHg 88%
    07:00 +28°C° 0 mm 2 mps 759 mmHg 79%
    08:00 +30°C° 0 mm 3 mps 759 mmHg 69%
    09:00 +31°C° 0 mm 3 mps 760 mmHg 60%
    10:00 +34°C° 0 mm 3 mps 759 mmHg 55%
    11:00 +35°C° 0 mm 3 mps 759 mmHg 51%
    12:00 +36°C° 0 mm 3 mps 758 mmHg 46%
    13:00 +36°C° 0 mm 4 mps 758 mmHg 48%
    14:00 +35°C° 0 mm 4 mps 757 mmHg 49%
    15:00 +35°C° 0 mm 5 mps 757 mmHg 51%
    16:00 +33°C° 0 mm 5 mps 757 mmHg 57%
    17:00 +32°C° 0 mm 5 mps 757 mmHg 64%
    18:00 +30°C° 0 mm 6 mps 757 mmHg 70%
    19:00 +29°C° 0 mm 5 mps 758 mmHg 71%
    20:00 +29°C° 0 mm 5 mps 758 mmHg 73%
    21:00 +29°C° 0 mm 5 mps 759 mmHg 75%
    22:00 +28°C° 0 mm 4 mps 759 mmHg 77%
    23:00 +28°C° 0 mm 4 mps 759 mmHg 78%
    Show more